Simultaneous Nadir Overpasses (SNOs) Predictions

Prediction of SNOs between FY3D and AQUA Satellite Orbit:

Table of predicted SNOs for the next 14.0 days since TLE Epoch: 4/27/2024
Index Date (FY3D) Time (FY3D) Lat,Lon (FY3D) SZA (FY3D ) Date (AQUA) Time (AQUA) Lat,Lon (AQUA) SZA (AQUA ) Distance(km) Time Diff (sec)
1 04/27/2024 15:17:31 79.49, -69.68 65.96 04/27/2024 15:18:42 79.49, -69.65 65.94 0.54 71
2 04/27/2024 16:08:10 -79.31, 99.18 114.32 04/27/2024 16:07:59 -79.31, 99.29 114.33 2.52 11
3 04/30/2024 04:11:56 79.37, 97.81 64.98 04/30/2024 04:12:10 79.36, 97.90 64.97 2.08 14
4 04/30/2024 05:02:30 -79.01, -92.07 115.54 04/30/2024 05:01:23 -79.02, -92.19 115.51 2.87 67
5 05/02/2024 16:15:38 -79.35, 97.07 115.80 05/02/2024 16:16:16 -79.36, 96.96 115.80 2.34 38
6 05/02/2024 17:06:19 79.19, -94.30 63.96 05/02/2024 17:05:34 79.18, -94.20 63.96 2.41 45
7 05/05/2024 04:19:25 79.51, 94.88 63.70 05/05/2024 04:20:23 79.50, 95.02 63.67 2.91 58
8 05/05/2024 05:10:03 -79.28, -95.90 116.64 05/05/2024 05:09:39 -79.27, -95.77 116.65 2.77 24
9 05/07/2024 16:25:41 -80.52, 39.72 109.64 05/07/2024 16:26:53 -81.35, 38.40 109.28 95.29 72
10 05/07/2024 17:13:46 79.29, -96.85 62.68 05/07/2024 17:13:41 79.28, -96.81 62.67 1.02 5
11 05/10/2024 05:17:28 -79.30, -97.79 117.98 05/10/2024 05:17:40 -79.30, -97.86 117.98 1.61 12



Historial Predications of SNOs between FY3D and AQUA
